TimeCST,TemperatureF,Dew PointF,Humidity,Sea Level PressureIn,VisibilityMPH,Wind Direction,Wind SpeedMPH,Gust SpeedMPH,PrecipitationIn,Events,Conditions,WindDirDegrees,DateUTC
12:53 AM,34.0,30.9,89,30.31,10.0,NNW,9.2,-,0.00,,Overcast,340,2013-12-10 06:53:00
1:20 AM,33.8,30.2,87,30.31,10.0,NNW,12.7,-,N/A,,Overcast,340,2013-12-10 07:20:00
1:53 AM,34.0,30.9,89,30.32,10.0,NNW,10.4,-,N/A,,Overcast,330,2013-12-10 07:53:00
2:27 AM,33.8,30.2,87,30.32,10.0,NNW,8.1,-,N/A,,Overcast,340,2013-12-10 08:27:00
2:53 AM,33.1,30.9,92,30.33,10.0,NNW,10.4,-,N/A,,Overcast,340,2013-12-10 08:53:00
3:02 AM,33.8,30.2,87,30.33,10.0,North,9.2,-,N/A,,Overcast,350,2013-12-10 09:02:00
3:13 AM,33.8,30.2,87,30.34,10.0,North,12.7,-,N/A,,Overcast,350,2013-12-10 09:13:00
3:25 AM,33.8,30.2,87,30.34,10.0,NNW,11.5,-,N/A,,Overcast,340,2013-12-10 09:25:00
3:53 AM,33.1,30.0,89,30.36,10.0,NNW,8.1,-,N/A,,Overcast,330,2013-12-10 09:53:00
4:53 AM,33.1,30.0,89,30.38,10.0,NNW,9.2,-,N/A,,Overcast,330,2013-12-10 10:53:00
5:11 AM,33.8,30.2,87,30.39,10.0,NNW,12.7,-,N/A,,Overcast,340,2013-12-10 11:11:00
5:18 AM,33.8,30.2,87,30.39,10.0,North,10.4,-,N/A,,Overcast,350,2013-12-10 11:18:00
5:49 AM,33.8,28.4,81,30.41,10.0,North,11.5,18.4,N/A,,Overcast,350,2013-12-10 11:49:00
5:53 AM,33.1,28.9,85,30.41,10.0,North,12.7,-,N/A,,Overcast,350,2013-12-10 11:53:00
6:40 AM,32.0,28.4,87,30.43,10.0,North,8.1,-,N/A,,Scattered Clouds,10,2013-12-10 12:40:00
6:53 AM,32.0,28.0,85,30.43,10.0,North,8.1,-,N/A,,Clear,360,2013-12-10 12:53:00
7:53 AM,32.0,28.9,88,30.45,9.0,NE,3.5,-,N/A,,Clear,40,2013-12-10 13:53:00
8:53 AM,35.1,28.0,76,30.45,10.0,NNE,9.2,-,N/A,,Clear,30,2013-12-10 14:53:00
9:53 AM,37.0,28.0,70,30.48,10.0,NNE,10.4,-,N/A,,Scattered Clouds,20,2013-12-10 15:53:00
10:53 AM,39.9,28.9,65,30.47,10.0,NNE,12.7,-,N/A,,Partly Cloudy,20,2013-12-10 16:53:00
11:53 AM,42.1,28.0,58,30.45,10.0,NNE,5.8,18.4,N/A,,Clear,20,2013-12-10 17:53:00
12:53 PM,44.1,28.9,55,30.43,10.0,NNE,11.5,-,N/A,,Clear,30,2013-12-10 18:53:00
1:53 PM,44.1,30.0,58,30.40,10.0,ENE,8.1,-,N/A,,Clear,60,2013-12-10 19:53:00
2:53 PM,44.1,30.9,60,30.40,10.0,East,4.6,-,N/A,,Clear,80,2013-12-10 20:53:00
3:53 PM,42.1,30.0,62,30.40,10.0,ENE,6.9,-,N/A,,Clear,70,2013-12-10 21:53:00
4:53 PM,39.0,30.0,70,30.40,10.0,ENE,6.9,-,N/A,,Clear,70,2013-12-10 22:53:00
5:53 PM,35.1,30.0,82,30.40,10.0,East,3.5,-,N/A,,Clear,80,2013-12-10 23:53:00
6:53 PM,32.0,30.0,92,30.41,10.0,Calm,Calm,-,N/A,,Clear,0,2013-12-11 00:53:00
7:53 PM,30.9,28.9,92,30.41,9.0,Calm,Calm,-,N/A,,Clear,0,2013-12-11 01:53:00
8:53 PM,28.9,28.0,96,30.41,3.0,Calm,Calm,-,N/A,,Clear,0,2013-12-11 02:53:00
9:53 PM,28.9,26.1,89,30.41,5.0,Calm,Calm,-,N/A,,Clear,0,2013-12-11 03:53:00
10:07 PM,28.4,28.4,100,30.41,1.8,Calm,Calm,-,N/A,,Clear,0,2013-12-11 04:07:00
10:25 PM,28.4,26.6,93,30.42,0.5,Calm,Calm,-,N/A,Fog,Light Freezing Fog,0,2013-12-11 04:25:00
10:35 PM,28.4,26.6,93,30.43,1.8,Calm,Calm,-,N/A,,Clear,0,2013-12-11 04:35:00
10:43 PM,28.4,26.6,93,30.43,2.5,Calm,Calm,-,N/A,,Clear,0,2013-12-11 04:43:00
10:53 PM,28.9,27.0,92,30.43,2.0,NNE,3.5,-,N/A,,Clear,20,2013-12-11 04:53:00
11:03 PM,28.4,26.6,93,30.42,1.8,Calm,Calm,-,N/A,,Clear,0,2013-12-11 05:03:00
11:11 PM,28.4,26.6,93,30.42,3.0,NNE,3.5,-,N/A,,Clear,20,2013-12-11 05:11:00
11:53 PM,28.0,26.1,92,30.43,3.0,Calm,Calm,-,N/A,,Clear,0,2013-12-11 05:53:00